Temperature
17 18 18 18 18 18 18 18 17 17 17 17 17 17 17 17 17 17 17 17 17 17 17 18 18 18 18 18 18 18 18 18 18 18 18 18 18 18 18 18 18 18 18
18 18 18 18 18 17 17 17 17 17 17 17 17 17 17 17 17 17 17 17 17 17 17 17 18 18 18 18 18 18 18 18 18 18 18 18 18 18 18 18 18 18 18
18 18 18 18 17 17 17 17 17 17 17 17 17 17 17 17 17 17 17 17 17 17 17 17 17 17 18 18 18 18 18 18 18 18 18 17 18 18 18 18 18 18 18
17 17 17 17 17 17 17 17 17 16 16 16 16 16 16 16 16 16 16 16 16 17 17 17 17 17 17 18 18 18 18 18 18 17 17 17 17 18 18 18 18 18 18
17 17 17 17 17 17 17 16 16 16 16 16 16 16 16 16 16 16 16 16 16 16 16 17 17 17 17 17 18 18 18 18 17 17 17 17 17 18 18 18 18 18 18
17 17 17 17 17 16 16 16 16 16 16 16 16 16 16 16 16 16 16 16 16 16 16 16 16 17 17 17 17 17 17 17 17 17 17 17 18 18 18 18 18 18 18
17 17 17 17 17 16 16 16 16 16 16 16 16 16 16 16 16 16 15 16 16 16 16 16 16 16 17 17 17 17 17 17 17 17 17 17 17 17 18 18 18 18 18
17 17 17 17 17 17 16 16 16 16 16 16 16 16 16 16 16 16 16 16 16 16 16 16 16 16 17 17 17 17 17 17 17 17 17 17 17 17 17 18 18 18 18
17 17 17 17 17 17 16 16 16 16 16 16 16 16 16 16 16 16 16 16 16 16 16 16 16 16 17 17 17 17 17 17 17 17 17 17 17 17 17 17 17 18 18
18 18 17 17 17 17 17 16 16 16 16 16 16 16 16 16 16 16 16 16 16 16 16 16 16 16 17 17 17 17 17 17 17 17 17 17 17 17 17 17 17 17 17
18 18 18 17 17 17 17 17 16 16 16 16 16 16 16 16 16 16 16 16 16 16 16 16 16 16 16 17 17 17 17 17 17 17 17 17 17 17 17 17 17 17 17
19 18 18 18 18 17 17 17 16 16 16 16 16 16 16 16 16 16 16 16 16 16 16 16 16 16 16 17 17 17 17 17 17 17 17 17 17 17 17 17 17 17 17
19 19 19 18 18 18 17 17 17 17 17 17 16 16 16 16 16 16 16 16 16 16 16 16 16 16 16 17 17 17 17 17 16 17 17 17 17 17 17 17 17 17 17
19 19 19 18 18 18 17 17 17 17 17 17 17 17 16 16 16 16 16 16 16 16 16 16 16 17 17 17 17 17 17 17 16 17 17 16 16 17 17 17 17 17 17
19 18 18 18 18 18 18 17 17 17 17 17 17 17 17 16 16 16 16 16 16 16 16 16 16 17 17 17 17 17 16 16 16 16 16 16 16 16 16 16 16 16 17
19 18 18 18 18 18 18 17 17 17 17 17 17 17 17 17 17 16 16 16 16 16 16 16 16 16 16 16 16 16 16 16 16 16 16 16 16 16 16 16 16 16 16
19 18 18 18 18 18 17 17 17 17 17 17 17 17 17 17 17 17 16 16 16 16 16 16 16 16 16 16 16 16 16 16 16 16 16 15 16 16 16 16 16 16 16
19 18 18 18 18 17 17 17 17 17 17 17 17 17 17 17 17 16 16 16 16 16 16 16 16 16 16 16 16 16 16 16 16 15 15 15 15 15 15 15 16 16 16
19 19 18 18 18 17 17 17 17 17 17 16 16 16 16 16 16 16 16 16 16 16 16 16 16 16 16 16 16 16 16 16 15 15 15 15 15 15 15 15 15 15 16
19 19 18 18 18 17 17 17 17 16 16 16 16 16 16 16 16 16 16 16 16 16 16 16 16 16 16 16 16 16 15 15 15 15 15 15 15 15 15 15 15 15 15
19 19 18 18 18 17 17 17 17 16 16 16 16 16 16 16 16 16 16 16 16 16 16 16 16 16 16 16 16 16 15 15 15 15 15 15 15 15 14 15 15 15 15
19 19 19 18 18 17 17 17 17 16 16 16 16 16 16 16 16 16 16 16 16 16 16 16 16 16 16 16 16 16 15 15 15 15 15 15 15 15 14 14 14 14 15
19 19 19 18 18 17 17 17 17 16 16 16 16 16 16 16 16 16 16 16 16 16 16 16 16 16 16 16 16 16 16 15 15 15 15 15 15 14 14 14 14 14 14
19 19 19 18 18 17 17 17 17 17 16 16 16 16 15 15 16 16 16 16 16 16 16 16 16 16 16 16 16 16 16 16 16 15 14 14 14 14 14 14 14 14 14
19 19 19 18 18 17 17 17 17 17 16 16 16 16 16 16 16 16 16 16 16 16 16 16 16 16 16 16 16 16 16 16 16 15 15 14 14 14 14 14 14 14 14
19 19 18 18 18 17 17 17 17 17 16 16 16 16 16 16 16 16 16 16 16 16 16 16 16 16 16 16 16 16 16 16 16 15 15 15 14 14 14 14 14 14 14
Wind_Speed
8 11 13 12 12 12 12 12 12 12 12 12 11 11 12 12 11 12 12 12 12 11 11 11 10 10 10 10 10 10 9 9 9 9 10 10 10 10 11 11 10 9 10
10 13 14 13 13 13 12 12 12 11 11 11 11 11 11 11 11 11 11 11 11 11 11 10 10 10 10 9 9 8 8 7 6 6 8 9 10 10 11 11 11 10 10
12 14 14 14 14 13 13 13 12 11 11 11 11 11 11 11 10 10 10 10 10 10 10 9 9 9 9 8 8 7 6 5 4 4 3 6 9 10 10 10 11 11 10
13 14 14 14 14 13 13 13 12 12 12 12 11 11 10 10 9 9 9 9 9 9 9 8 8 8 8 8 7 6 4 4 4 4 5 8 9 10 10 10 10 10 9
14 15 14 14 14 13 13 13 12 12 12 11 10 10 9 9 9 8 8 8 8 8 7 7 7 8 7 7 6 5 4 4 5 5 7 11 11 11 11 10 10 10 9
14 16 14 15 14 13 13 13 12 12 11 11 10 9 9 8 8 7 7 7 7 7 6 6 6 7 6 6 5 4 4 5 5 4 8 11 10 10 10 10 10 9 9
13 15 14 14 14 14 13 13 12 11 11 10 10 9 8 8 7 7 7 7 6 6 6 5 5 6 5 4 4 4 5 5 2 4 10 11 10 10 10 9 9 9 8
12 14 14 14 14 14 13 13 12 11 10 9 9 8 8 7 7 7 6 6 6 6 6 6 5 5 4 3 2 4 6 6 4 6 12 12 10 10 10 9 9 9 8
10 11 13 14 14 14 13 12 11 9 8 7 6 6 6 6 6 6 7 6 6 6 6 6 5 4 3 2 1 2 4 5 5 5 12 11 10 10 9 9 9 9 9
8 8 9 12 13 13 12 10 9 8 6 5 5 4 4 5 6 6 6 6 6 5 5 5 4 3 2 2 1 1 4 5 4 10 11 11 11 10 9 9 9 9 9
8 7 7 7 9 11 11 10 9 8 6 6 6 6 6 5 7 7 8 7 6 5 5 4 3 2 2 2 2 3 4 2 7 12 11 12 11 11 10 9 9 9 9
6 7 7 6 6 7 7 8 6 6 6 5 5 3 3 6 7 9 9 7 6 5 4 4 4 3 4 4 4 3 1 2 10 12 11 12 12 11 11 10 10 10 10
6 5 6 6 6 6 5 5 4 4 3 4 5 5 5 5 6 7 7 7 5 5 4 4 5 6 5 4 4 3 3 8 11 11 11 12 12 11 11 10 11 11 11
6 5 5 4 5 7 6 3 3 3 3 4 5 6 5 2 2 3 3 4 4 3 2 3 3 1 1 4 4 5 8 8 11 12 11 13 12 11 11 11 11 11 11
5 5 5 5 6 5 3 2 5 3 3 5 4 5 4 2 2 1 3 3 3 3 1 0 2 4 4 6 7 7 7 8 12 12 11 13 13 12 12 12 12 12 12
6 6 4 4 4 4 3 3 3 4 5 5 3 4 5 4 2 2 2 3 3 3 3 3 5 4 4 5 5 7 8 9 10 12 11 11 13 13 13 13 13 13 12
7 7 4 4 5 6 5 4 4 5 6 4 4 6 6 5 5 3 2 2 3 4 5 5 5 4 4 5 5 6 7 7 8 10 10 9 9 11 12 13 13 14 14
8 8 5 5 7 6 4 4 4 6 5 5 7 8 7 8 9 5 3 2 5 6 4 3 4 5 5 5 4 5 5 5 7 9 8 8 8 8 10 12 13 14 15
7 8 6 5 6 5 4 3 5 5 5 6 8 9 9 9 8 6 2 3 6 4 3 3 4 4 4 4 4 4 4 4 5 8 7 8 8 8 8 10 13 14 14
5 6 7 5 6 5 3 4 4 4 4 6 7 7 8 7 7 4 2 4 6 4 4 4 4 3 3 3 5 5 4 4 5 6 6 8 9 9 9 8 9 12 15
4 6 7 6 6 4 3 3 3 3 4 4 4 5 5 7 7 5 4 4 4 3 4 4 3 3 3 4 4 4 4 5 5 5 4 5 6 8 10 10 9 9 11
5 5 7 6 6 6 3 3 3 3 4 3 3 5 7 8 7 5 4 3 4 4 5 5 4 2 2 3 3 3 2 3 4 5 3 4 5 7 8 11 12 12 12
5 5 6 6 7 6 5 4 4 3 3 3 3 3 5 8 9 8 6 3 4 4 4 3 3 3 2 2 2 2 2 2 1 3 4 5 5 5 5 9 12 13 14
6 4 6 6 7 7 6 3 4 3 3 3 3 2 4 6 6 7 6 5 5 4 3 3 4 2 3 2 2 2 2 3 3 2 3 4 5 6 6 7 10 13 14
7 5 5 7 7 7 6 4 3 3 3 3 3 4 5 4 5 6 6 5 5 4 4 5 5 4 3 2 2 2 3 2 2 3 3 2 3 4 5 6 8 10 14
7 6 6 7 7 6 5 5 4 4 4 4 4 4 4 3 3 4 5 5 4 4 5 4 4 5 4 4 3 3 2 2 2 3 3 3 3 3 5 5 6 8 11
Wind_Direction
88 89 84 84 86 85 85 83 84 84 87 89 88 86 85 85 84 83 80 77 75 75 75 74 76 78 78 77 76 76 75 76 79 81 81 76 72 64 57 49 45 52 53
101 94 88 87 87 86 86 86 85 86 87 89 89 87 86 87 87 84 82 80 79 78 76 74 73 76 76 75 75 73 70 70 75 81 85 82 75 68 60 54 52 51 49
98 96 90 88 88 87 86 85 84 84 86 90 89 88 88 87 86 86 85 85 83 81 79 75 73 75 73 73 71 69 65 58 54 52 64 91 81 70 62 55 51 49 46
93 89 89 89 88 87 87 85 85 86 86 86 87 87 87 87 86 85 86 87 85 85 83 81 77 75 74 75 72 67 54 30 14 13 56 78 76 71 63 55 49 46 45
91 91 91 91 89 89 89 87 86 86 87 86 86 87 87 85 86 86 88 91 90 88 86 83 82 79 75 72 69 58 33 6 359 35 70 79 73 69 61 54 48 45 43
98 97 97 95 92 91 89 89 88 86 85 85 84 83 84 84 84 85 86 90 92 88 83 81 83 80 76 69 59 40 13 356 350 65 85 82 75 68 61 54 49 45 40
101 103 103 103 98 93 90 90 88 86 85 84 81 80 82 83 83 81 79 83 85 86 84 84 85 85 80 69 48 20 355 344 326 79 88 84 79 71 62 53 47 43 40
107 111 113 112 108 101 95 90 87 86 85 84 83 84 86 87 87 85 83 84 86 86 83 84 92 95 92 78 46 9 353 350 28 82 91 84 78 70 59 50 46 43 40
112 119 126 129 119 109 102 98 94 93 94 94 95 100 102 101 99 94 88 86 92 94 93 90 94 98 110 114 61 357 340 342 357 57 85 79 74 67 59 51 44 41 38
120 121 127 133 131 128 123 120 119 120 122 126 135 150 148 137 127 113 106 100 101 104 106 105 107 113 125 147 144 297 309 336 45 71 78 77 72 66 59 51 44 40 39
122 125 123 124 129 132 133 135 150 151 159 165 184 201 199 174 155 128 109 112 116 123 129 133 138 147 173 199 216 263 300 326 91 80 73 74 70 64 58 53 49 44 42
124 121 120 123 122 116 109 132 155 140 158 166 144 163 149 103 104 116 125 130 134 141 156 183 192 216 232 221 217 233 291 91 87 87 77 73 68 62 56 53 51 49 45
102 99 111 112 113 111 100 98 94 103 119 96 95 87 82 104 128 136 148 162 168 174 191 190 202 218 213 190 162 152 102 78 87 83 78 72 66 62 57 51 51 50 46
95 85 88 96 95 90 86 101 100 79 77 66 65 81 71 67 79 104 123 139 149 138 150 173 195 176 111 111 108 100 87 86 96 89 79 73 68 64 59 53 51 49 46
105 87 59 61 77 88 89 78 90 66 73 84 53 74 74 82 81 97 102 93 84 85 96 84 69 66 55 55 64 68 74 82 95 96 87 77 71 65 59 54 53 51 48
121 104 90 88 97 111 106 83 86 99 87 80 65 80 86 89 101 87 88 85 80 66 45 67 83 74 68 64 54 60 63 70 93 107 106 89 77 69 61 56 54 51 48
124 114 108 97 77 69 60 57 73 71 70 61 40 62 75 74 69 72 67 84 91 77 59 58 73 75 81 76 60 66 60 55 81 99 108 106 92 77 69 62 57 50 47
123 118 107 94 85 77 67 51 60 61 55 56 38 28 49 68 72 57 51 62 75 72 69 60 52 62 65 67 61 60 63 48 61 82 91 96 99 92 78 70 63 53 47
125 130 130 105 101 96 102 82 63 67 52 58 50 31 30 41 66 70 47 58 76 70 60 72 67 74 79 80 78 65 63 51 49 68 74 72 75 94 92 78 67 58 51
115 122 112 103 104 101 91 88 69 59 51 56 57 44 29 35 49 58 60 69 72 69 60 67 71 75 84 85 90 76 66 65 54 51 56 58 53 67 78 83 76 65 55
124 124 127 136 118 108 86 90 87 82 74 61 60 46 37 45 43 49 52 60 66 84 88 86 76 79 85 97 85 70 51 63 71 58 54 58 51 51 61 66 62 69 61
150 155 142 128 118 108 89 106 108 101 100 93 63 43 43 45 35 50 66 70 69 71 69 74 70 61 60 92 107 111 87 44 47 57 55 61 53 48 53 59 54 62 63
165 169 136 126 122 117 98 78 82 76 83 87 78 52 44 46 35 38 44 61 79 84 90 96 90 76 54 46 83 106 123 127 105 36 58 64 58 48 45 57 54 59 62
166 152 135 132 124 112 108 101 116 113 103 104 108 114 82 65 54 43 44 42 67 73 79 83 84 81 69 42 31 32 82 125 126 101 43 58 61 57 50 55 54 57 62
155 152 133 120 115 111 115 113 104 101 108 105 105 104 91 66 62 52 56 55 62 65 65 62 58 47 58 51 45 39 40 35 75 114 111 78 57 55 58 55 59 59 63
145 137 119 116 114 119 137 143 129 127 126 116 113 112 112 96 68 61 66 63 69 70 70 73 74 62 54 46 42 49 52 57 58 81 105 111 96 77 66 58 62 65 70
Height
1524 1523 1523 1523 1523 1524 1525 1526 1526 1527 1528 1529 1530 1530 1531 1532 1533 1534 1535 1535 1536 1538 1538 1539 1540 1540 1541 1542 1543 1543 1544 1545 1545 1546 1546 1546 1546 1547 1547 1547 1546 1546 1546
1525 1524 1525 1524 1525 1525 1526 1527 1528 1528 1529 1530 1531 1531 1532 1533 1534 1535 1536 1536 1537 1538 1539 1540 1541 1541 1542 1543 1543 1544 1545 1545 1546 1547 1547 1547 1547 1547 1547 1547 1547 1547 1547
1526 1525 1526 1526 1526 1527 1527 1528 1529 1529 1530 1531 1532 1532 1533 1534 1535 1536 1536 1537 1538 1539 1540 1540 1541 1542 1543 1543 1544 1545 1546 1547 1547 1548 1548 1549 1548 1548 1548 1548 1548 1547 1547
1527 1526 1526 1527 1527 1528 1528 1529 1530 1531 1531 1532 1532 1533 1533 1534 1535 1536 1537 1537 1538 1539 1540 1541 1542 1542 1543 1544 1545 1546 1547 1548 1548 1549 1549 1549 1549 1549 1549 1549 1548 1548 1548
1528 1528 1528 1528 1529 1529 1530 1530 1531 1532 1532 1532 1533 1533 1534 1534 1535 1536 1537 1538 1538 1539 1540 1541 1542 1543 1544 1545 1546 1547 1548 1549 1549 1550 1550 1550 1550 1550 1549 1549 1549 1548 1548
1529 1529 1529 1530 1530 1531 1531 1532 1532 1533 1533 1533 1534 1534 1534 1535 1536 1536 1537 1538 1539 1539 1540 1541 1542 1543 1544 1545 1546 1547 1548 1549 1550 1550 1551 1551 1551 1551 1550 1550 1549 1549 1548
1531 1531 1531 1532 1532 1533 1533 1534 1534 1534 1535 1535 1535 1535 1536 1536 1536 1537 1538 1538 1539 1540 1540 1541 1542 1543 1544 1546 1547 1548 1549 1550 1551 1551 1551 1551 1551 1551 1551 1550 1550 1549 1549
1533 1533 1533 1533 1534 1535 1535 1536 1536 1536 1537 1537 1537 1537 1537 1537 1538 1538 1538 1539 1539 1540 1540 1541 1542 1544 1545 1546 1547 1549 1550 1551 1551 1552 1552 1552 1552 1552 1551 1551 1550 1550 1549
1535 1535 1535 1535 1536 1537 1537 1538 1538 1538 1538 1539 1539 1538 1538 1538 1539 1539 1539 1540 1540 1540 1541 1542 1543 1544 1546 1547 1548 1549 1550 1552 1552 1553 1552 1553 1552 1552 1552 1551 1551 1550 1550
1537 1537 1538 1538 1538 1538 1539 1540 1540 1540 1540 1541 1541 1540 1540 1540 1540 1541 1541 1541 1541 1541 1542 1543 1544 1545 1546 1547 1549 1550 1551 1552 1553 1553 1553 1553 1553 1553 1552 1552 1551 1551 1550
1539 1540 1540 1541 1541 1541 1541 1542 1542 1542 1542 1542 1542 1543 1542 1542 1542 1542 1543 1543 1542 1543 1544 1544 1545 1546 1547 1549 1550 1551 1552 1553 1553 1554 1554 1554 1554 1553 1553 1552 1552 1551 1550
1540 1541 1542 1543 1543 1544 1544 1544 1544 1544 1544 1544 1545 1545 1545 1545 1545 1545 1545 1545 1545 1545 1545 1546 1547 1547 1548 1550 1551 1552 1553 1553 1554 1554 1554 1555 1554 1554 1553 1553 1552 1551 1551
1542 1543 1544 1544 1545 1545 1545 1546 1546 1546 1546 1547 1546 1546 1547 1547 1546 1546 1546 1546 1547 1547 1547 1548 1549 1549 1550 1551 1552 1553 1554 1554 1554 1555 1555 1555 1555 1554 1554 1553 1552 1552 1551
1543 1544 1545 1546 1546 1546 1546 1547 1547 1548 1548 1548 1548 1548 1548 1548 1548 1548 1548 1548 1549 1549 1549 1550 1550 1551 1552 1553 1554 1555 1555 1555 1555 1556 1556 1556 1555 1555 1554 1553 1553 1552 1551
1544 1545 1545 1546 1546 1547 1547 1548 1549 1549 1549 1549 1549 1549 1549 1549 1549 1549 1550 1550 1550 1551 1551 1552 1552 1552 1553 1554 1555 1556 1556 1557 1557 1557 1557 1557 1556 1556 1555 1554 1553 1553 1552
1544 1545 1546 1547 1547 1548 1549 1549 1550 1550 1550 1550 1550 1551 1550 1550 1551 1551 1551 1551 1552 1552 1552 1553 1553 1554 1554 1555 1556 1557 1558 1558 1558 1558 1558 1558 1557 1557 1556 1555 1554 1553 1552
1545 1546 1547 1548 1549 1549 1550 1551 1551 1552 1552 1552 1552 1552 1552 1552 1552 1552 1552 1553 1553 1553 1554 1555 1555 1555 1556 1557 1558 1559 1559 1560 1560 1560 1559 1559 1558 1558 1557 1556 1555 1554 1553
1545 1547 1548 1549 1550 1551 1551 1552 1552 1552 1553 1553 1552 1553 1553 1553 1553 1553 1554 1554 1554 1555 1556 1556 1557 1557 1558 1559 1560 1560 1561 1561 1562 1561 1561 1560 1560 1559 1558 1557 1556 1555 1554
1546 1547 1549 1550 1551 1552 1553 1553 1554 1554 1554 1554 1554 1553 1554 1554 1555 1555 1555 1555 1556 1556 1557 1558 1558 1559 1560 1561 1561 1562 1562 1563 1563 1563 1563 1562 1562 1561 1560 1559 1557 1556 1555
1547 1548 1549 1550 1552 1553 1554 1554 1555 1555 1555 1555 1555 1555 1555 1555 1556 1556 1557 1557 1557 1557 1558 1559 1560 1561 1562 1562 1563 1564 1564 1564 1565 1564 1564 1564 1563 1562 1561 1560 1559 1557 1556
1547 1549 1550 1551 1553 1554 1554 1555 1556 1556 1556 1556 1556 1556 1557 1557 1557 1557 1558 1558 1558 1559 1559 1560 1561 1562 1563 1564 1564 1565 1566 1566 1566 1566 1566 1565 1565 1564 1563 1561 1560 1559 1557
1547 1549 1550 1552 1553 1554 1555 1556 1557 1557 1557 1557 1558 1558 1558 1558 1558 1559 1559 1559 1559 1560 1560 1561 1562 1563 1564 1565 1566 1566 1567 1569 1568 1568 1567 1567 1566 1565 1564 1563 1562 1560 1558
1547 1549 1550 1552 1553 1555 1556 1557 1557 1558 1558 1559 1559 1559 1559 1559 1559 1559 1560 1560 1561 1561 1561 1562 1563 1564 1565 1566 1566 1567 1567 1568 1569 1570 1569 1569 1568 1567 1566 1565 1564 1562 1560
1546 1549 1551 1552 1553 1555 1556 1557 1558 1558 1559 1560 1560 1560 1560 1560 1560 1561 1561 1561 1562 1562 1563 1563 1564 1565 1566 1566 1567 1567 1568 1568 1569 1570 1571 1570 1570 1569 1568 1566 1565 1563 1562
1546 1548 1550 1552 1553 1555 1556 1557 1558 1559 1560 1561 1561 1561 1561 1562 1562 1562 1562 1562 1563 1563 1563 1564 1565 1565 1566 1567 1568 1568 1569 1569 1570 1570 1571 1572 1571 1570 1570 1568 1567 1565 1563
1545 1548 1550 1551 1553 1555 1556 1557 1559 1559 1560 1561 1562 1562 1563 1563 1563 1563 1563 1564 1564 1564 1564 1565 1565 1566 1567 1567 1568 1569 1569 1570 1570 1570 1571 1572 1572 1572 1571 1570 1569 1567 1566